EHI
9 11 14 16 17 16 16 18 18 15 14 13 10 7 6 6 6 6 4 2 1 2 3 3 2 3 6 7 9 9 10 10 9 6 3 2 1 0 0 0 0 0 0
12 12 14 16 18 17 16 17 18 17 16 13 10 7 6 5 3 3 4 3 1 1 1 1 1 2 4 6 7 8 9 9 8 5 3 2 1 1 0 0 0 0 0
12 12 13 14 15 14 13 14 17 18 18 13 8 6 5 5 2 2 4 3 1 0 0 1 1 1 3 3 3 5 7 7 6 4 3 2 2 2 1 0 0 0 0
9 9 9 10 11 10 9 11 13 16 17 14 8 4 4 5 4 3 2 2 0 0 1 2 3 3 3 2 2 3 5 5 5 4 3 3 4 3 1 0 0 0 0
6 6 7 9 10 9 8 8 10 12 13 12 9 6 3 3 4 2 2 2 2 1 1 4 6 5 3 2 3 5 5 4 4 4 4 4 4 3 1 0 0 1 1
4 6 7 8 9 9 7 6 7 8 10 10 8 5 3 3 4 3 3 3 3 3 3 5 7 6 4 4 6 7 6 5 4 4 3 3 4 3 2 1 0 1 2
4 5 7 7 7 7 7 6 7 7 8 9 7 5 5 6 7 6 5 3 3 5 6 6 7 7 5 6 7 7 6 5 4 3 3 3 3 3 2 1 0 1 1
4 5 7 7 6 6 6 6 7 8 8 8 7 6 7 8 9 8 6 3 3 5 7 8 8 7 6 7 7 5 4 4 4 3 2 2 3 3 2 1 0 0 0
4 6 7 7 6 5 4 4 5 7 7 8 8 7 7 8 8 8 7 6 5 5 7 8 7 6 6 6 5 5 4 3 3 3 2 2 3 3 3 2 1 0 1
5 5 6 5 4 4 3 2 4 6 7 8 8 7 7 8 8 7 8 8 7 6 6 6 6 5 5 5 5 4 3 3 3 3 3 4 4 3 3 3 1 1 2
4 4 5 4 3 4 3 3 4 6 8 9 9 8 8 9 9 9 9 9 7 6 6 6 5 5 5 5 5 4 3 3 3 3 4 4 4 3 3 2 2 2 2
4 4 5 5 4 4 4 5 5 7 9 11 12 11 11 10 9 9 9 9 8 7 6 6 6 5 5 5 4 4 4 4 3 3 3 4 3 3 2 2 2 2 2
6 6 6 7 6 6 7 7 6 7 9 12 13 14 12 10 8 8 9 9 9 8 8 7 6 5 5 4 3 4 4 4 4 3 3 3 3 3 3 2 2 1 1
7 7 8 8 8 8 9 10 8 7 8 10 12 13 12 9 8 8 9 10 10 10 10 8 5 4 4 3 3 3 4 4 3 3 3 3 3 3 3 3 2 1 1
5 6 6 7 9 10 11 12 11 9 7 7 8 10 11 10 10 10 10 10 10 10 9 7 5 3 3 3 3 3 3 3 3 3 3 3 3 3 3 2 2 2 2
1 2 3 5 8 9 10 11 11 10 8 6 7 8 9 11 12 12 11 11 10 9 8 7 5 4 4 3 3 3 3 3 3 3 3 3 3 3 2 1 1 1 2
1 2 3 5 6 6 7 8 10 11 10 9 7 7 8 9 10 11 10 10 10 9 7 7 6 5 5 4 3 3 3 3 3 3 4 4 4 3 2 1 0 0 1
4 4 4 5 6 6 5 7 10 11 10 8 8 7 7 8 9 10 10 10 10 9 8 7 6 6 5 3 1 1 3 3 3 4 5 5 5 4 3 2 1 0 0
7 6 5 6 7 6 5 6 8 7 6 5 6 6 7 8 8 9 10 10 9 9 9 7 6 6 6 3 1 1 2 3 3 3 4 5 4 3 2 2 2 1 1
8 6 5 5 5 5 4 4 4 2 1 2 4 5 6 7 8 9 9 10 10 10 9 7 6 6 6 3 1 1 2 3 3 3 3 2 2 1 1 2 3 2 2
7 6 4 4 3 4 4 4 2 1 0 1 2 4 5 6 6 7 9 10 10 10 9 8 7 6 6 3 1 1 2 3 3 3 3 2 0 0 0 1 2 2 1
7 5 4 4 3 3 5 4 3 1 0 0 1 3 4 4 5 6 8 9 9 9 9 8 7 7 6 4 1 0 1 1 2 2 2 1 0 0 0 0 1 1 0
6 4 4 4 3 4 5 5 3 1 0 0 1 3 4 4 4 6 7 7 7 7 7 7 8 8 7 4 1 0 0 0 1 1 1 0 0 0 0 0 0 0 0
6 5 3 3 3 3 4 5 4 1 0 1 2 3 3 3 4 5 6 6 6 5 5 5 7 7 5 3 1 0 0 0 0 0 0 0 0 0 0 0 0 0 0
7 5 2 1 2 3 4 5 4 3 1 1 2 2 2 2 3 4 5 6 5 3 3 3 4 4 2 1 0 0 0 0 0 0 0 0 0 0 0 0 0 0 0
6 3 1 1 2 3 4 4 4 3 2 1 1 1 1 2 3 4 4 4 4 2 1 1 1 1 1 0 0 0 0 0 0 0 0 0 0 0 0 0 0 0 0
Wind_Speed
5 5 5 5 4 4 4 5 4 4 3 2 2 2 2 1 1 1 0 2 3 2 3 3 2 3 2 2 3 2 3 2 1 2 1 2 3 3 3 3 3 4 5
5 5 5 5 4 4 4 4 4 4 4 2 2 1 1 1 1 1 1 1 2 2 2 2 2 2 2 2 2 2 2 1 1 2 2 2 3 3 3 3 4 4 4
6 5 5 5 4 4 4 3 3 4 3 3 2 2 1 1 1 1 1 1 2 2 2 2 1 1 2 1 2 3 3 2 2 2 3 2 1 1 3 3 3 3 3
5 5 5 5 5 4 4 3 3 3 3 3 2 2 2 2 1 1 1 1 1 1 1 1 1 2 2 1 3 2 3 3 2 2 2 3 2 3 2 3 3 4 4
5 5 5 5 4 4 4 4 3 3 3 2 2 2 2 1 1 1 2 1 2 1 1 1 2 2 2 1 2 1 3 2 3 2 2 2 2 4 4 3 2 3 3
5 4 4 4 4 4 4 4 4 3 2 2 2 2 1 1 1 1 1 1 1 1 1 0 1 1 1 1 2 2 3 2 3 3 3 2 2 2 3 3 3 3 3
6 5 5 5 4 4 4 4 4 3 2 2 1 1 2 2 2 1 1 1 1 1 1 0 0 1 1 1 2 2 2 2 2 3 2 2 3 2 3 3 3 3 3
6 6 6 5 5 5 4 3 3 3 3 2 2 1 1 1 1 0 0 1 0 1 1 0 1 1 1 2 2 2 2 2 2 3 3 3 3 3 3 3 4 4 4
6 6 5 5 4 4 4 4 3 3 3 3 2 2 2 1 1 1 1 0 1 1 1 0 1 1 1 1 1 1 1 1 2 3 3 4 3 3 3 3 4 4 4
5 5 5 4 4 4 4 4 3 3 3 3 3 2 2 2 1 1 1 1 1 1 0 1 1 1 1 1 1 1 1 1 2 2 2 3 3 2 3 3 4 4 5
5 5 5 4 4 4 4 4 3 3 3 3 3 2 2 2 2 1 1 1 1 1 1 1 1 1 1 1 1 2 1 2 2 2 3 3 4 3 3 3 3 4 4
5 5 5 5 4 4 4 3 3 3 3 3 3 3 2 3 3 2 2 1 1 1 1 1 1 1 1 1 1 2 2 2 3 3 3 3 2 3 4 3 4 4 3
5 5 5 5 4 4 3 3 3 3 3 3 3 3 3 3 3 3 2 2 2 1 1 1 1 1 1 1 2 2 3 3 3 3 3 3 3 3 3 4 4 3 3
5 5 4 4 4 3 3 3 3 3 3 3 3 3 3 3 3 3 3 2 2 1 1 1 1 1 1 2 2 2 2 3 3 3 3 3 3 3 4 4 4 4 4
4 5 4 4 4 4 4 3 3 2 3 3 3 3 3 3 3 3 2 2 2 2 2 2 2 2 2 2 2 3 3 3 3 3 3 3 2 3 4 4 4 4 4
3 4 4 4 3 3 3 3 3 3 3 4 3 3 3 3 3 3 3 3 2 2 2 3 3 3 2 1 1 4 4 4 4 4 4 3 3 2 3 3 4 5 5
3 3 3 3 2 2 2 3 3 3 3 4 3 3 4 4 4 4 3 3 3 3 3 3 3 3 1 1 2 4 5 5 4 4 4 4 2 3 3 4 6 6 6
3 3 2 2 2 2 3 3 3 3 3 4 3 3 3 4 4 4 3 3 3 3 3 3 3 3 2 2 3 4 6 4 4 4 4 4 4 3 4 5 5 5 4
2 3 3 3 3 2 2 3 3 3 3 3 3 3 3 3 4 4 3 3 3 3 3 3 3 3 2 3 3 5 5 4 4 4 4 4 4 2 3 6 6 5 5
2 3 3 3 3 3 3 3 3 3 3 3 3 3 3 3 4 3 3 3 3 3 3 2 3 3 2 3 3 5 5 4 4 4 4 3 4 2 3 6 6 6 5
3 3 3 3 3 2 3 3 3 2 3 3 3 3 3 3 4 3 3 3 3 3 3 3 3 3 2 4 5 5 5 5 5 4 3 1 3 3 5 7 6 6 7
3 3 2 2 3 3 3 3 2 2 2 3 3 3 3 3 3 3 3 3 4 4 4 4 4 4 4 3 5 6 7 7 6 5 4 1 2 4 6 6 5 6 7
3 3 2 2 2 2 3 3 2 2 2 3 3 3 3 3 3 3 4 4 4 4 4 4 4 3 3 4 7 9 8 9 7 5 3 4 5 6 7 8 8 7 6
3 3 3 2 1 2 2 2 2 3 3 2 2 3 3 4 3 3 3 3 3 4 4 4 4 3 2 2 2 4 5 8 8 7 6 9 10 9 8 6 7 6 5
2 2 2 2 2 1 1 1 1 2 3 3 3 3 4 3 3 4 3 4 2 2 4 4 4 4 3 1 3 4 4 4 4 6 6 6 4 5 5 4 4 4 5
2 2 2 2 2 1 1 1 2 2 3 3 3 3 3 3 3 3 3 1 2 1 2 4 5 2 1 0 1 3 4 5 5 6 6 5 5 5 5 4 4 4 4
Wind_Direction
171 164 169 168 168 170 174 177 175 163 179 189 210 202 209 228 225 218 192 272 272 253 254 269 240 257 255 254 240 234 215 226 228 244 238 214 204 201 218 223 229 218 220
167 159 162 166 166 163 170 178 176 166 189 186 218 222 241 241 226 227 162 246 264 265 244 265 262 257 249 227 234 237 253 238 217 259 244 218 192 207 214 213 220 228 220
176 168 166 165 166 166 171 178 176 178 189 180 192 174 177 221 187 194 174 214 240 252 274 236 256 256 249 214 222 222 230 237 227 241 273 263 246 213 198 220 225 230 237
176 174 167 164 167 164 164 165 170 172 169 181 185 188 209 223 217 220 147 162 177 214 233 233 239 263 279 250 237 202 228 231 230 215 267 288 297 257 224 210 210 225 234
176 171 168 163 158 154 155 152 147 151 159 171 169 198 210 222 197 188 151 175 147 179 215 228 246 264 271 264 271 233 247 248 254 244 238 253 253 255 260 252 242 231 229
172 167 156 154 153 149 151 146 145 145 145 162 169 190 189 198 185 177 144 161 138 146 116 256 269 257 269 246 248 245 242 261 263 263 256 255 261 248 252 253 254 258 251
171 166 162 162 160 160 161 154 152 149 142 143 166 184 187 187 184 194 158 156 148 129 111 47 280 282 281 261 248 234 246 238 241 249 262 264 269 274 263 256 258 261 258
169 168 167 167 169 168 169 164 166 160 150 150 153 154 177 207 143 152 238 152 91 69 81 176 256 273 269 260 245 246 231 225 242 246 260 262 262 269 267 263 264 262 255
168 169 165 164 165 167 170 175 172 164 162 160 152 152 158 133 96 148 210 117 46 45 73 246 249 250 261 276 269 270 253 236 243 241 235 248 253 259 264 264 267 268 268
163 160 159 165 166 164 164 170 172 179 175 169 169 158 159 157 154 168 92 34 358 332 257 236 253 249 217 237 270 269 261 256 257 259 270 267 259 260 260 259 259 263 268
161 156 157 166 172 173 169 178 179 188 187 181 176 174 174 170 181 195 184 197 250 246 233 224 224 240 256 257 264 289 290 269 270 266 259 263 275 273 269 261 259 259 263
156 156 159 161 167 178 179 181 196 199 196 189 184 184 181 179 191 186 185 194 211 229 232 244 252 260 265 271 265 281 283 270 268 271 272 273 268 265 270 269 261 262 268
155 159 163 168 172 177 180 186 203 209 206 194 193 187 189 190 194 189 182 183 190 211 251 262 258 266 276 276 275 276 278 278 279 277 276 281 278 270 269 271 270 261 251
159 163 166 173 176 184 189 200 211 215 217 208 200 192 190 192 200 196 187 186 194 205 232 249 253 264 274 283 283 279 287 289 285 280 276 281 282 281 282 272 272 275 272
164 170 174 177 184 188 195 208 217 218 218 212 203 195 192 193 196 193 191 195 206 212 214 225 233 239 242 272 289 287 288 288 288 285 277 274 305 333 309 300 294 278 270
177 181 184 183 192 195 198 202 211 211 210 209 206 200 199 200 200 200 198 199 208 225 227 234 241 248 266 75 331 293 284 285 287 285 283 266 232 234 231 266 287 290 276
183 186 187 188 195 200 202 203 205 206 203 202 203 205 210 210 210 210 200 205 219 228 232 242 246 247 235 172 226 265 276 278 285 290 289 286 300 271 278 237 227 240 243
177 177 185 183 185 189 192 195 197 193 191 199 199 207 217 218 214 210 208 217 227 235 240 245 248 251 216 174 228 259 256 267 271 273 277 283 291 300 300 288 277 269 251
163 166 171 168 164 174 179 185 192 190 192 202 206 205 212 225 224 219 218 224 229 232 234 231 237 247 203 167 222 261 256 252 257 258 262 272 277 322 296 275 276 277 269
146 150 157 155 156 167 181 193 198 202 210 214 215 208 215 229 235 229 225 225 231 235 244 234 234 240 231 168 205 253 265 262 260 245 235 219 262 285 274 271 274 277 283
145 144 154 159 162 178 192 208 214 220 226 222 216 214 218 229 231 235 229 227 231 233 244 241 233 227 233 179 193 230 269 282 276 273 264 220 177 239 253 263 273 286 287
156 159 159 163 175 188 199 211 218 233 241 232 219 213 217 233 222 229 238 233 235 229 229 234 239 222 209 212 191 207 238 280 280 282 293 342 173 242 253 256 269 276 273
165 170 169 162 171 187 204 212 209 221 233 237 229 218 212 229 231 231 231 226 225 243 247 246 248 242 226 187 189 204 222 239 259 281 296 286 261 252 241 233 243 251 255
170 177 173 166 168 190 203 213 211 219 228 232 228 217 216 226 222 241 244 246 242 254 259 260 266 262 242 254 219 216 219 222 238 260 250 230 234 241 254 247 229 239 255
162 174 179 182 180 197 212 201 201 218 228 233 236 235 228 229 231 233 252 268 282 310 293 293 284 286 283 3 0 307 298 300 307 294 273 268 262 255 252 251 249 251 249
160 168 187 192 183 194 216 211 207 213 224 234 242 243 239 233 236 236 222 195 265 211 254 275 293 296 1 272 269 277 286 285 286 278 269 270 268 269 273 271 266 256 260